DMSP 5D-3 F16 (USA 172)

Last updated on Wed Sep 17 2025 00:02:22 GMT+0000 (Coordinated Universal Time)

1 28054U 03048A 25259.62808907 .00000094 00000+0 72911-4 0 9993 2 28054 99.0128 276.3558 0006877 193.3318 276.6936 14.14376653130814
UTC large
Height (km)
Speed (km/s)
/
Latitude / Longitude
Inclination (degrees)
Orbital Period (minutes)
Azimuth
Elevation
Range (km)
Doppler Factor

Next 0 passes for location: London (51.5072 / 0.1276)

Sorry there are no passes over London.